18-03-2022, 00:00:01,    231,    0.0,    5.4,   0.00,   0.00, 1032.1,   89.9, -999.0
18-03-2022, 00:00:12,    231,    0.0,    5.3,   0.00,   0.00, 1032.1,   90.0, -999.0
18-03-2022, 00:00:22,    231,    0.0,    5.3,   0.00,   0.00, 1032.1,   90.1, -999.0
18-03-2022, 00:00:31,    231,    0.0,    5.3,   0.00,   0.00, 1032.1,   90.1, -999.0
18-03-2022, 00:00:41,    231,    0.0,    5.3,   0.00,   0.00, 1032.1,   90.1, -999.0
18-03-2022, 00:00:52,    231,    0.0,    5.3,   0.00,   0.00, 1032.1,   90.0, -999.0
18-03-2022, 00:01:01,    231,    0.0,    5.3,   0.00,   0.00, 1032.2,   90.0, -999.0
18-03-2022, 00:01:11,    231,    0.0,    5.3,   0.00,   0.00, 1032.2,   90.1, -999.0
18-03-2022, 00:01:21,    231,    0.0,    5.3,   0.00,   0.00, 1032.1,   90.1, -999.0
18-03-2022, 00:01:31,    231,    0.0,    5.3,   0.00,   0.00, 1032.1,   90.2, -999.0
18-03-2022, 00:01:41,    231,    0.0,    5.3,   0.00,   0.00, 1032.1,   90.2, -999.0
18-03-2022, 00:01:51,    231,    0.0,    5.3,   0.00,   0.00, 1032.1,   90.2, -999.0
18-03-2022, 00:02:01,    231,    0.0,    5.3,   0.00,   0.00, 1032.1,   90.2, -999.0
18-03-2022, 00:02:11,    231,    0.0,    5.3,   0.00,   0.00, 1032.1,   90.3, -999.0
18-03-2022, 00:02:21,    231,    0.0,    5.3,   0.00,   0.00, 1032.2,   90.2, -999.0
18-03-2022, 00:02:31,    231,    0.0,    5.4,   0.00,   0.00, 1032.1,   90.3, -999.0
18-03-2022, 00:02:41,    231,    0.0,    5.4,   0.00,   0.00, 1032.2,   90.3, -999.0
18-03-2022, 00:02:51,    231,    0.0,    5.2,   0.00,   0.00, 1032.1,   90.2, -999.0
18-03-2022, 00:03:01,    231,    0.0,    5.3,   0.00,   0.00, 1032.2,   90.2, -999.0
18-03-2022, 00:03:11,    231,    0.0,    5.2,   0.00,   0.00, 1032.1,   90.2, -999.0
18-03-2022, 00:03:21,    231,    0.0,    5.3,   0.00,   0.00, 1032.2,   90.3, -999.0
18-03-2022, 00:03:31,    231,    0.0,    5.3,   0.00,   0.00, 1032.1,   90.2, -999.0
18-03-2022, 00:03:40,    231,    0.0,    5.3,   0.00,   0.00, 1032.2,   90.3, -999.0
18-03-2022, 00:03:51,    231,    0.0,    5.3,   0.00,   0.00, 1032.1,   90.3, -999.0
18-03-2022, 00:04:01,    231,    0.0,    5.3,   0.00,   0.00, 1032.1,   90.3, -999.0
18-03-2022, 00:04:10,    231,    0.0,    5.3,   0.00,   0.00, 1032.2,   90.3, -999.0
18-03-2022, 00:04:20,    231,    0.0,    5.3,   0.00,   0.00, 1032.1,   90.3, -999.0
18-03-2022, 00:04:31,    231,    0.0,    5.3,   0.00,   0.00, 1032.1,   90.3, -999.0
18-03-2022, 00:04:40,    231,    0.0,    5.4,   0.00,   0.00, 1032.1,   90.3, -999.0
18-03-2022, 00:04:50,    231,    0.0,    5.3,   0.00,   0.00, 1032.1,   90.3, -999.0
18-03-2022, 00:05:00,    231,    0.0,    5.3,   0.00,   0.00, 1032.1,   90.4, -999.0
18-03-2022, 00:05:10,    231,    0.0,    5.3,   0.00,   0.00, 1032.1,   90.4, -999.0
18-03-2022, 00:05:20,    231,    0.0,    5.3,   0.00,   0.00, 1032.1,   90.4, -999.0
18-03-2022, 00:05:30,    231,    0.0,    5.2,   0.00,   0.00, 1032.1,   90.3, -999.0
18-03-2022, 00:05:40,    231,    0.0,    5.3,   0.00,   0.00, 1032.1,   90.4, -999.0
18-03-2022, 00:05:50,    231,    0.0,    5.3,   0.00,   0.00, 1032.1,   90.4, -999.0
18-03-2022, 00:06:00,    231,    0.0,    5.3,   0.00,   0.00, 1032.1,   90.5, -999.0
18-03-2022, 00:06:10,    231,    0.0,    5.3,   0.00,   0.00, 1032.1,   90.4, -999.0
18-03-2022, 00:06:20,    231,    0.0,    5.3,   0.00,   0.00, 1032.1,   90.4, -999.0
18-03-2022, 00:06:30,    231,    0.0,    5.3,   0.00,   0.00, 1032.1,   90.5, -999.0
18-03-2022, 00:06:40,    231,    0.0,    5.3,   0.00,   0.00, 1032.1,   90.6, -999.0
18-03-2022, 00:06:49,    231,    0.0,    5.3,   0.00,   0.00, 1032.1,   90.6, -999.0
18-03-2022, 00:07:00,    232,    0.0,    5.3,   0.00,   0.00, 1032.1,   90.6, -999.0
18-03-2022, 00:07:10,    231,    0.0,    5.3,   0.00,   0.00, 1032.1,   90.6, -999.0
18-03-2022, 00:07:19,    231,    0.0,    5.4,   0.00,   0.00, 1032.1,   90.6, -999.0
18-03-2022, 00:07:29,    231,    0.0,    5.3,   0.00,   0.00, 1032.1,   90.7, -999.0
18-03-2022, 00:07:40,    231,    0.0,    5.4,   0.00,   0.00, 1032.1,   90.6, -999.0
18-03-2022, 00:07:49,    231,    0.0,    5.3,   0.00,   0.00, 1032.1,   90.8, -999.0
18-03-2022, 00:07:59,    231,    0.0,    5.3,   0.00,   0.00, 1032.1,   90.7, -999.0
18-03-2022, 00:08:09,    232,    0.0,    5.3,   0.00,   0.00, 1032.1,   90.7, -999.0
18-03-2022, 00:08:19,    231,    0.0,    5.3,   0.00,   0.00, 1032.1,   90.8, -999.0
18-03-2022, 00:08:29,    231,    0.0,    5.4,   0.00,   0.00, 1032.1,   90.8, -999.0
18-03-2022, 00:08:39,    231,    0.0,    5.3,   0.00,   0.00, 1032.1,   90.7, -999.0
18-03-2022, 00:08:49,    231,    0.0,    5.4,   0.00,   0.00, 1032.1,   90.8, -999.0
18-03-2022, 00:08:59,    231,    0.0,    5.3,   0.00,   0.00, 1032.1,   90.9, -999.0
18-03-2022, 00:09:09,    231,    0.0,    5.3,   0.00,   0.00, 1032.1,   91.0, -999.0
18-03-2022, 00:09:19,    231,    0.0,    5.3,   0.00,   0.00, 1032.1,   91.0, -999.0
18-03-2022, 00:09:29,    231,    0.0,    5.4,   0.00,   0.00, 1032.1,   91.0, -999.0
18-03-2022, 00:09:39,    231,    0.0,    5.2,   0.00,   0.00, 1032.1,   91.0, -999.0
18-03-2022, 00:09:49,    231,    0.0,    5.3,   0.00,   0.00, 1032.1,   91.1, -999.0
18-03-2022, 00:09:58,    231,    0.0,    5.4,   0.00,   0.00, 1032.1,   91.0, -999.0
18-03-2022, 00:10:09,    231,    0.0,    5.3,   0.00,   0.00, 1032.1,   91.1, -999.0
18-03-2022, 00:10:19,    231,    0.0,    5.3,   0.00,   0.00, 1032.1,   91.0, -999.0
18-03-2022, 00:10:28,    231,    0.0,    5.3,   0.00,   0.00, 1032.1,   90.8, -999.0
18-03-2022, 00:10:38,    231,    0.0,    5.3,   0.00,   0.00, 1032.1,   90.9, -999.0
18-03-2022, 00:10:49,    231,    0.0,    5.3,   0.00,   0.00, 1032.1,   90.8, -999.0
18-03-2022, 00:10:58,    231,    0.0,    5.3,   0.00,   0.00, 1032.1,   90.9, -999.0
18-03-2022, 00:11:08,    231,    0.0,    5.3,   0.00,   0.00, 1032.1,   91.0, -999.0
18-03-2022, 00:11:19,    231,    0.0,    5.3,   0.00,   0.00, 1032.1,   91.1, -999.0
18-03-2022, 00:11:28,    231,    0.0,    5.4,   0.00,   0.00, 1032.1,   91.1, -999.0
18-03-2022, 00:11:38,    231,    0.0,    5.3,   0.00,   0.00, 1032.1,   91.2, -999.0
18-03-2022, 00:11:48,    231,    0.0,    5.4,   0.00,   0.00, 1032.1,   91.2, -999.0
18-03-2022, 00:11:58,    231,    0.0,    5.3,   0.00,   0.00, 1032.1,   91.2, -999.0
18-03-2022, 00:12:08,    231,    0.0,    5.3,   0.00,   0.00, 1032.1,   91.2, -999.0
18-03-2022, 00:12:18,    231,    0.0,    5.3,   0.00,   0.00, 1032.1,   91.1, -999.0
18-03-2022, 00:12:28,    231,    0.0,    5.4,   0.00,   0.00, 1032.1,   91.2, -999.0
18-03-2022, 00:12:38,    231,    0.0,    5.4,   0.00,   0.00, 1032.1,   91.1, -999.0
18-03-2022, 00:12:48,    231,    0.0,    5.3,   0.00,   0.00, 1032.1,   91.2, -999.0
18-03-2022, 00:12:58,    231,    0.0,    5.4,   0.00,   0.00, 1032.1,   91.2, -999.0
18-03-2022, 00:13:08,    231,    0.0,    5.4,   0.00,   0.00, 1032.1,   91.1, -999.0
18-03-2022, 00:13:18,    231,    0.0,    5.4,   0.00,   0.00, 1032.1,   91.2, -999.0
18-03-2022, 00:13:28,    231,    0.0,    5.4,   0.00,   0.00, 1032.1,   91.2, -999.0
18-03-2022, 00:13:37,    231,    0.0,    5.4,   0.00,   0.00, 1032.1,   91.3, -999.0
18-03-2022, 00:13:48,    231,    0.0,    5.4,   0.00,   0.00, 1032.1,   91.5, -999.0
18-03-2022, 00:13:58,    231,    0.0,    5.4,   0.00,   0.00, 1032.1,   91.4, -999.0
18-03-2022, 00:14:07,    231,    0.0,    5.3,   0.00,   0.00, 1032.1,   91.4, -999.0
18-03-2022, 00:14:17,    231,    0.0,    5.4,   0.00,   0.00, 1032.1,   91.4, -999.0
18-03-2022, 00:14:28,    231,    0.0,    5.4,   0.00,   0.00, 1032.1,   91.3, -999.0
18-03-2022, 00:14:37,    231,    0.0,    5.5,   0.00,   0.00, 1032.1,   91.4, -999.0
18-03-2022, 00:14:47,    231,    0.0,    5.5,   0.00,   0.00, 1032.1,   91.4, -999.0
18-03-2022, 00:14:57,    231,    0.0,    5.5,   0.00,   0.00, 1032.1,   91.5, -999.0
18-03-2022, 00:15:07,    231,    0.0,    5.4,   0.00,   0.00, 1032.1,   91.4, -999.0
18-03-2022, 00:15:17,    231,    0.0,    5.4,   0.00,   0.00, 1032.1,   91.3, -999.0
18-03-2022, 00:15:27,    231,    0.0,    5.4,   0.00,   0.00, 1032.1,   91.3, -999.0
18-03-2022, 00:15:37,    231,    0.0,    5.4,   0.00,   0.00, 1032.1,   91.3, -999.0
18-03-2022, 00:15:47,    231,    0.0,    5.4,   0.00,   0.00, 1032.1,   91.3, -999.0
18-03-2022, 00:15:57,    231,    0.0,    5.4,   0.00,   0.00, 1032.1,   91.3, -999.0
18-03-2022, 00:16:07,    231,    0.0,    5.4,   0.00,   0.00, 1032.1,   91.3, -999.0
18-03-2022, 00:16:17,    231,    0.0,    5.4,   0.00,   0.00, 1032.1,   91.3, -999.0
18-03-2022, 00:16:27,    232,    0.0,    5.4,   0.00,   0.00, 1032.1,   91.3, -999.0
18-03-2022, 00:16:37,    231,    0.0,    5.4,   0.00,   0.00, 1032.1,   91.4, -999.0
18-03-2022, 00:16:46,    231,    0.0,    5.4,   0.00,   0.00, 1032.1,   91.4, -999.0
18-03-2022, 00:16:57,    231,    0.0,    5.4,   0.00,   0.00, 1032.1,   91.5, -999.0
18-03-2022, 00:17:07,    231,    0.0,    5.3,   0.00,   0.00, 1032.1,   91.5, -999.0
18-03-2022, 00:17:16,    231,    0.0,    5.4,   0.00,   0.00, 1032.1,   91.4, -999.0
18-03-2022, 00:17:26,    231,    0.0,    5.4,   0.00,   0.00, 1032.1,   91.6, -999.0
18-03-2022, 00:17:37,    232,    0.0,    5.4,   0.00,   0.00, 1032.1,   91.5, -999.0
18-03-2022, 00:17:46,    231,    0.0,    5.4,   0.00,   0.00, 1032.1,   91.6, -999.0
18-03-2022, 00:17:56,    231,    0.0,    5.4,   0.00,   0.00, 1032.1,   91.5, -999.0
18-03-2022, 00:18:07,    231,    0.0,    5.4,   0.00,   0.00, 1032.1,   91.5, -999.0
18-03-2022, 00:18:16,    231,    0.0,    5.5,   0.00,   0.00, 1032.1,   91.5, -999.0
18-03-2022, 00:18:26,    231,    0.0,    5.4,   0.00,   0.00, 1032.1,   91.6, -999.0
18-03-2022, 00:18:36,    231,    0.0,    5.4,   0.00,   0.00, 1032.1,   91.6, -999.0
18-03-2022, 00:18:46,    231,    0.0,    5.5,   0.00,   0.00, 1032.1,   91.5, -999.0
18-03-2022, 00:18:56,    231,    0.0,    5.4,   0.00,   0.00, 1032.1,   91.6, -999.0
18-03-2022, 00:19:06,    231,    0.0,    5.4,   0.00,   0.00, 1032.1,   91.5, -999.0
18-03-2022, 00:19:16,    231,    0.0,    5.4,   0.00,   0.00, 1032.1,   91.7, -999.0
18-03-2022, 00:19:26,    231,    0.0,    5.4,   0.00,   0.00, 1032.1,   91.5, -999.0
18-03-2022, 00:19:36,    231,    0.0,    5.4,   0.00,   0.00, 1032.1,   91.6, -999.0
18-03-2022, 00:19:46,    231,    0.0,    5.4,   0.00,   0.00, 1032.1,   91.5, -999.0
18-03-2022, 00:19:56,    231,    0.0,    5.4,   0.00,   0.00, 1032.1,   91.6, -999.0
18-03-2022, 00:20:06,    231,    0.0,    5.4,   0.00,   0.00, 1032.1,   91.6, -999.0
18-03-2022, 00:20:16,    231,    0.0,    5.4,   0.00,   0.00, 1032.1,   91.6, -999.0
18-03-2022, 00:20:25,    231,    0.0,    5.4,   0.00,   0.00, 1032.1,   91.6, -999.0
18-03-2022, 00:20:36,    231,    0.0,    5.5,   0.00,   0.00, 1032.1,   91.7, -999.0
18-03-2022, 00:20:46,    231,    0.0,    5.4,   0.00,   0.00, 1032.0,   91.6, -999.0
18-03-2022, 00:20:55,    231,    0.0,    5.4,   0.00,   0.00, 1032.0,   91.6, -999.0
18-03-2022, 00:21:05,    231,    0.0,    5.4,   0.00,   0.00, 1032.0,   91.6, -999.0
18-03-2022, 00:21:16,    231,    0.0,    5.3,   0.00,   0.00, 1032.0,   91.5, -999.0
18-03-2022, 00:21:25,    231,    0.0,    5.4,   0.00,   0.00, 1032.0,   91.6, -999.0
18-03-2022, 00:21:35,    231,    0.0,    5.3,   0.00,   0.00, 1032.0,   91.6, -999.0
18-03-2022, 00:21:45,    231,    0.0,    5.3,   0.00,   0.00, 1032.0,   91.6, -999.0
18-03-2022, 00:21:55,    231,    0.0,    5.3,   0.00,   0.00, 1032.0,   91.5, -999.0
18-03-2022, 00:22:05,    231,    0.0,    5.4,   0.00,   0.00, 1032.0,   91.4, -999.0
18-03-2022, 00:22:15,    231,    0.0,    5.3,   0.00,   0.00, 1032.0,   91.5, -999.0
18-03-2022, 00:22:25,    231,    0.0,    5.3,   0.00,   0.00, 1032.0,   91.4, -999.0
18-03-2022, 00:22:35,    230,    0.0,    5.3,   0.00,   0.00, 1032.0,   91.5, -999.0
18-03-2022, 00:22:45,    231,    0.0,    5.3,   0.00,   0.00, 1032.0,   91.4, -999.0
18-03-2022, 00:22:55,    231,    0.0,    5.2,   0.00,   0.00, 1032.0,   91.4, -999.0
18-03-2022, 00:23:05,    231,    0.0,    5.3,   0.00,   0.00, 1032.0,   91.5, -999.0
18-03-2022, 00:23:15,    231,    0.0,    5.3,   0.00,   0.00, 1032.0,   91.4, -999.0
18-03-2022, 00:23:25,    231,    0.0,    5.2,   0.00,   0.00, 1032.0,   91.5, -999.0
18-03-2022, 00:23:35,    231,    0.0,    5.3,   0.00,   0.00, 1032.0,   91.5, -999.0
18-03-2022, 00:23:45,    231,    0.0,    5.3,   0.00,   0.00, 1032.0,   91.4, -999.0
18-03-2022, 00:23:55,    231,    0.0,    5.3,   0.00,   0.00, 1032.0,   91.6, -999.0
18-03-2022, 00:24:04,    231,    0.0,    5.3,   0.00,   0.00, 1032.0,   91.6, -999.0
18-03-2022, 00:24:14,    231,    0.0,    5.3,   0.00,   0.00, 1032.0,   91.6, -999.0
18-03-2022, 00:24:25,    231,    0.0,    5.3,   0.00,   0.00, 1032.0,   91.5, -999.0
18-03-2022, 00:24:34,    231,    0.0,    5.3,   0.00,   0.00, 1032.0,   91.8, -999.0
18-03-2022, 00:24:44,    231,    0.0,    5.4,   0.00,   0.00, 1032.0,   91.8, -999.0
18-03-2022, 00:24:55,    231,    0.0,    5.2,   0.00,   0.00, 1032.0,   91.8, -999.0
18-03-2022, 00:25:04,    231,    0.0,    5.3,   0.00,   0.00, 1032.0,   91.8, -999.0
18-03-2022, 00:25:14,    231,    0.0,    5.4,   0.00,   0.00, 1032.0,   91.9, -999.0
18-03-2022, 00:25:24,    231,    0.0,    5.4,   0.00,   0.00, 1032.1,   91.9, -999.0
18-03-2022, 00:25:34,    231,    0.0,    5.4,   0.00,   0.00, 1032.1,   92.0, -999.0
18-03-2022, 00:25:44,    231,    0.0,    5.4,   0.00,   0.00, 1032.1,   92.0, -999.0
18-03-2022, 00:25:54,    231,    0.0,    5.5,   0.00,   0.00, 1032.0,   92.1, -999.0
18-03-2022, 00:26:04,    231,    0.0,    5.5,   0.00,   0.00, 1032.1,   92.1, -999.0
18-03-2022, 00:26:14,    231,    0.0,    5.5,   0.00,   0.00, 1032.1,   92.1, -999.0
18-03-2022, 00:26:24,    230,    0.0,    5.5,   0.00,   0.00, 1032.1,   92.1, -999.0
18-03-2022, 00:26:34,    231,    0.0,    5.4,   0.00,   0.00, 1032.1,   92.1, -999.0
18-03-2022, 00:26:44,    231,    0.0,    5.4,   0.00,   0.00, 1032.1,   92.1, -999.0
18-03-2022, 00:26:54,    231,    0.0,    5.5,   0.00,   0.00, 1032.1,   92.2, -999.0
18-03-2022, 00:27:04,    231,    0.0,    5.5,   0.00,   0.00, 1032.1,   92.1, -999.0
18-03-2022, 00:27:13,    230,    0.0,    5.5,   0.00,   0.00, 1032.1,   92.2, -999.0
18-03-2022, 00:27:24,    230,    0.0,    5.5,   0.00,   0.00, 1032.1,   92.2, -999.0
18-03-2022, 00:27:34,    230,    0.0,    5.5,   0.00,   0.00, 1032.1,   92.2, -999.0
18-03-2022, 00:27:43,    231,    0.0,    5.4,   0.00,   0.00, 1032.1,   92.1, -999.0
18-03-2022, 00:27:53,    231,    0.0,    5.4,   0.00,   0.00, 1032.1,   92.2, -999.0
18-03-2022, 00:28:04,    230,    0.0,    5.5,   0.00,   0.00, 1032.1,   92.2, -999.0
18-03-2022, 00:28:13,    230,    0.0,    5.4,   0.00,   0.00, 1032.1,   92.1, -999.0
18-03-2022, 00:28:23,    230,    0.0,    5.4,   0.00,   0.00, 1032.1,   92.0, -999.0
18-03-2022, 00:28:33,    230,    0.0,    5.4,   0.00,   0.00, 1032.1,   92.1, -999.0
18-03-2022, 00:28:43,    230,    0.0,    5.5,   0.00,   0.00, 1032.1,   92.1, -999.0
18-03-2022, 00:28:53,    230,    0.0,    5.5,   0.00,   0.00, 1032.1,   92.3, -999.0
18-03-2022, 00:29:03,    230,    0.0,    5.6,   0.00,   0.00, 1032.2,   92.3, -999.0
18-03-2022, 00:29:13,    230,    0.0,    5.5,   0.00,   0.00, 1032.1,   92.3, -999.0
18-03-2022, 00:29:23,    230,    0.0,    5.5,   0.00,   0.00, 1032.1,   92.2, -999.0
18-03-2022, 00:29:33,    230,    0.0,    5.5,   0.00,   0.00, 1032.2,   92.1, -999.0
18-03-2022, 00:29:43,    230,    0.0,    5.5,   0.00,   0.00, 1032.2,   92.2, -999.0
18-03-2022, 00:29:53,    231,    0.0,    5.5,   0.00,   0.00, 1032.2,   92.2, -999.0
18-03-2022, 00:30:03,    230,    0.0,    5.5,   0.00,   0.00, 1032.2,   92.2, -999.0
18-03-2022, 00:30:13,    230,    0.0,    5.6,   0.00,   0.00, 1032.2,   92.1, -999.0
18-03-2022, 00:30:22,    230,    0.0,    5.4,   0.00,   0.00, 1032.2,   92.0, -999.0
18-03-2022, 00:30:33,    230,    0.0,    5.5,   0.00,   0.00, 1032.2,   92.1, -999.0
18-03-2022, 00:30:43,    231,    0.0,    5.5,   0.00,   0.00, 1032.2,   91.9, -999.0
18-03-2022, 00:30:52,    230,    0.0,    5.4,   0.00,   0.00, 1032.2,   92.0, -999.0
18-03-2022, 00:31:03,    230,    0.0,    5.4,   0.00,   0.00, 1032.2,   91.8, -999.0
18-03-2022, 00:31:13,    230,    0.0,    5.4,   0.00,   0.00, 1032.2,   91.9, -999.0
18-03-2022, 00:31:22,    230,    0.0,    5.4,   0.00,   0.00, 1032.2,   91.8, -999.0
18-03-2022, 00:31:32,    230,    0.0,    5.4,   0.00,   0.00, 1032.2,   91.8, -999.0
18-03-2022, 00:31:43,    230,    0.0,    5.4,   0.00,   0.00, 1032.2,   91.9, -999.0
18-03-2022, 00:31:52,    230,    0.0,    5.4,   0.00,   0.00, 1032.1,   91.8, -999.0
18-03-2022, 00:32:02,    230,    0.0,    5.4,   0.00,   0.00, 1032.2,   91.8, -999.0
18-03-2022, 00:32:12,    230,    0.0,    5.4,   0.00,   0.00, 1032.2,   91.9, -999.0
18-03-2022, 00:32:22,    230,    0.0,    5.4,   0.00,   0.00, 1032.1,   91.8, -999.0
18-03-2022, 00:32:32,    230,    0.0,    5.3,   0.00,   0.00, 1032.2,   91.8, -999.0
18-03-2022, 00:32:42,    230,    0.0,    5.3,   0.00,   0.00, 1032.2,   91.7, -999.0
18-03-2022, 00:32:52,    230,    0.0,    5.3,   0.00,   0.00, 1032.2,   91.8, -999.0
18-03-2022, 00:33:02,    230,    0.0,    5.3,   0.00,   0.00, 1032.2,   91.6, -999.0
18-03-2022, 00:33:12,    230,    0.0,    5.3,   0.00,   0.00, 1032.2,   91.7, -999.0
18-03-2022, 00:33:22,    230,    0.0,    5.2,   0.00,   0.00, 1032.2,   91.7, -999.0
18-03-2022, 00:33:31,    230,    0.0,    5.2,   0.00,   0.00, 1032.2,   91.8, -999.0
18-03-2022, 00:33:42,    230,    0.0,    5.3,   0.00,   0.00, 1032.1,   91.7, -999.0
18-03-2022, 00:33:52,    230,    0.0,    5.3,   0.00,   0.00, 1032.1,   91.7, -999.0
18-03-2022, 00:34:01,    230,    0.0,    5.3,   0.00,   0.00, 1032.2,   91.7, -999.0
18-03-2022, 00:34:12,    230,    0.0,    5.2,   0.00,   0.00, 1032.1,   91.7, -999.0
18-03-2022, 00:34:22,    230,    0.0,    5.1,   0.00,   0.00, 1032.2,   91.7, -999.0
18-03-2022, 00:34:31,    230,    0.0,    5.2,   0.00,   0.00, 1032.1,   91.7, -999.0
18-03-2022, 00:34:41,    230,    0.0,    5.2,   0.00,   0.00, 1032.1,   91.6, -999.0
18-03-2022, 00:34:52,    230,    0.0,    5.2,   0.00,   0.00, 1032.1,   91.6, -999.0
18-03-2022, 00:35:01,    231,    0.0,    5.3,   0.00,   0.00, 1032.1,   91.6, -999.0
18-03-2022, 00:35:11,    231,    0.0,    5.2,   0.00,   0.00, 1032.2,   91.8, -999.0
18-03-2022, 00:35:21,    230,    0.0,    5.2,   0.00,   0.00, 1032.1,   91.7, -999.0
18-03-2022, 00:35:31,    230,    0.0,    5.2,   0.00,   0.00, 1032.1,   91.7, -999.0
18-03-2022, 00:35:41,    230,    0.0,    5.1,   0.00,   0.00, 1032.1,   91.7, -999.0
18-03-2022, 00:35:51,    230,    0.0,    5.2,   0.00,   0.00, 1032.1,   91.7, -999.0
18-03-2022, 00:36:01,    230,    0.0,    5.2,   0.00,   0.00, 1032.1,   91.9, -999.0
18-03-2022, 00:36:11,    230,    0.0,    5.2,   0.00,   0.00, 1032.1,   91.8, -999.0
18-03-2022, 00:36:21,    230,    0.0,    5.2,   0.00,   0.00, 1032.1,   91.8, -999.0
18-03-2022, 00:36:31,    230,    0.0,    5.2,   0.00,   0.00, 1032.1,   91.8, -999.0
18-03-2022, 00:36:41,    230,    0.0,    5.2,   0.00,   0.00, 1032.1,   91.8, -999.0
18-03-2022, 00:36:51,    230,    0.0,    5.2,   0.00,   0.00, 1032.1,   91.8, -999.0
18-03-2022, 00:37:01,    230,    0.0,    5.2,   0.00,   0.00, 1032.1,   91.9, -999.0
18-03-2022, 00:37:10,    230,    0.0,    5.3,   0.00,   0.00, 1032.1,   91.8, -999.0
18-03-2022, 00:37:21,    231,    0.0,    5.3,   0.00,   0.00, 1032.1,   91.9, -999.0
18-03-2022, 00:37:31,    230,    0.0,    5.3,   0.00,   0.00, 1032.1,   92.0, -999.0
18-03-2022, 00:37:40,    230,    0.0,    5.3,   0.00,   0.00, 1032.1,   91.9, -999.0
18-03-2022, 00:37:50,    231,    0.0,    5.3,   0.00,   0.00, 1032.1,   92.0, -999.0
18-03-2022, 00:38:01,    230,    0.0,    5.2,   0.00,   0.00, 1032.1,   91.9, -999.0
18-03-2022, 00:38:10,    230,    0.0,    5.1,   0.00,   0.00, 1032.1,   92.0, -999.0
18-03-2022, 00:38:20,    230,    0.0,    5.2,   0.00,   0.00, 1032.1,   91.9, -999.0
18-03-2022, 00:38:30,    230,    0.0,    5.3,   0.00,   0.00, 1032.1,   91.9, -999.0
18-03-2022, 00:38:40,    230,    0.0,    5.2,   0.00,   0.00, 1032.1,   92.0, -999.0
18-03-2022, 00:38:50,    230,    0.0,    5.1,   0.00,   0.00, 1032.1,   92.1, -999.0
18-03-2022, 00:39:00,    230,    0.0,    5.2,   0.00,   0.00, 1032.1,   92.1, -999.0
18-03-2022, 00:39:10,    230,    0.0,    5.2,   0.00,   0.00, 1032.1,   92.2, -999.0
18-03-2022, 00:39:20,    230,    0.0,    5.2,   0.00,   0.00, 1032.1,   92.1, -999.0
18-03-2022, 00:39:30,    230,    0.0,    5.2,   0.00,   0.00, 1032.1,   92.1, -999.0
18-03-2022, 00:39:40,    230,    0.0,    5.2,   0.00,   0.00, 1032.1,   92.1, -999.0
18-03-2022, 00:39:50,    230,    0.0,    5.2,   0.00,   0.00, 1032.1,   92.1, -999.0
18-03-2022, 00:40:00,    230,    0.0,    5.3,   0.00,   0.00, 1032.1,   92.0, -999.0
18-03-2022, 00:40:10,    230,    0.0,    5.3,   0.00,   0.00, 1032.1,   92.1, -999.0
18-03-2022, 00:40:20,    230,    0.0,    5.2,   0.00,   0.00, 1032.1,   92.2, -999.0
18-03-2022, 00:40:30,    230,    0.0,    5.1,   0.00,   0.00, 1032.1,   92.1, -999.0
18-03-2022, 00:40:40,    230,    0.0,    5.3,   0.00,   0.00, 1032.1,   92.0, -999.0
18-03-2022, 00:40:49,    230,    0.0,    5.3,   0.00,   0.00, 1032.1,   92.1, -999.0
18-03-2022, 00:40:59,    230,    0.0,    5.2,   0.00,   0.00, 1032.1,   92.1, -999.0
18-03-2022, 00:41:10,    230,    0.0,    5.2,   0.00,   0.00, 1032.1,   92.3, -999.0
18-03-2022, 00:41:19,    230,    0.0,    5.3,   0.00,   0.00, 1032.1,   92.4, -999.0
18-03-2022, 00:41:29,    230,    0.0,    5.3,   0.00,   0.00, 1032.1,   92.4, -999.0
18-03-2022, 00:41:40,    230,    0.0,    5.3,   0.00,   0.00, 1032.1,   92.4, -999.0
18-03-2022, 00:41:49,    230,    0.0,    5.3,   0.00,   0.00, 1032.1,   92.4, -999.0
18-03-2022, 00:41:59,    230,    0.0,    5.3,   0.00,   0.00, 1032.1,   92.5, -999.0
18-03-2022, 00:42:09,    230,    0.0,    5.3,   0.00,   0.00, 1032.1,   92.6, -999.0
18-03-2022, 00:42:19,    230,    0.0,    5.3,   0.00,   0.00, 1032.1,   92.6, -999.0
18-03-2022, 00:42:29,    230,    0.0,    5.3,   0.00,   0.00, 1032.1,   92.6, -999.0
18-03-2022, 00:42:39,    230,    0.0,    5.4,   0.00,   0.00, 1032.1,   92.7, -999.0
18-03-2022, 00:42:49,    230,    0.0,    5.4,   0.00,   0.00, 1032.1,   92.8, -999.0
18-03-2022, 00:42:59,    230,    0.0,    5.5,   0.00,   0.00, 1032.1,   92.8, -999.0
18-03-2022, 00:43:09,    230,    0.0,    5.4,   0.00,   0.00, 1032.1,   92.7, -999.0
18-03-2022, 00:43:19,    229,    0.0,    5.4,   0.00,   0.00, 1032.1,   92.7, -999.0
18-03-2022, 00:43:29,    230,    0.0,    5.5,   0.00,   0.00, 1032.1,   92.7, -999.0
18-03-2022, 00:43:39,    230,    0.0,    5.5,   0.00,   0.00, 1032.1,   93.0, -999.0
18-03-2022, 00:43:49,    186,    0.0,    5.6,   0.00,   0.00, 1032.1,   93.0, -999.0
18-03-2022, 00:43:59,    186,    0.0,    5.7,   0.00,   0.00, 1032.1,   93.2, -999.0
18-03-2022, 00:44:09,    186,    0.0,    5.6,   0.00,   0.00, 1032.1,   93.2, -999.0
18-03-2022, 00:44:19,    186,    0.0,    5.7,   0.00,   0.00, 1032.1,   93.2, -999.0
18-03-2022, 00:44:28,    186,    0.0,    5.6,   0.00,   0.00, 1032.1,   93.2, -999.0
18-03-2022, 00:44:38,    185,    0.0,    5.7,   0.00,   0.00, 1032.1,   93.3, -999.0
18-03-2022, 00:44:49,    186,    0.0,    5.6,   0.00,   0.00, 1032.1,   93.1, -999.0
18-03-2022, 00:44:58,    186,    0.0,    5.6,   0.00,   0.00, 1032.1,   92.9, -999.0
18-03-2022, 00:45:08,    185,    0.0,    5.6,   0.00,   0.00, 1032.1,   92.9, -999.0
18-03-2022, 00:45:18,    186,    0.0,    5.6,   0.00,   0.00, 1032.1,   93.0, -999.0
18-03-2022, 00:45:28,    186,    0.0,    5.6,   0.00,   0.00, 1032.1,   93.1, -999.0
18-03-2022, 00:45:38,    186,    0.8,    5.7,   0.00,   0.00, 1032.3,   93.3, -999.0
18-03-2022, 00:45:48,    185,    0.2,    5.7,   0.00,   0.00, 1032.2,   93.2, -999.0
18-03-2022, 00:45:58,    185,    0.0,    5.6,   0.00,   0.00, 1032.2,   93.0, -999.0
18-03-2022, 00:46:08,    186,    0.5,    5.6,   0.00,   0.00, 1032.3,   93.1, -999.0
18-03-2022, 00:46:18,    185,    0.0,    5.6,   0.00,   0.00, 1032.1,   92.9, -999.0
18-03-2022, 00:46:28,    185,    0.4,    5.7,   0.00,   0.00, 1032.2,   93.1, -999.0
18-03-2022, 00:46:38,    185,    0.1,    5.6,   0.00,   0.00, 1032.2,   92.9, -999.0